Temp
-11 -10 -10 -10 -10 -10 -10 -10 -10 -10 -10 -10 -10 -10 -10 -10 -10 -10 -10 -10 -10 -10 -10 -10 -10 -9 -9 -9 -9 -9 -9 -9 -9 -10 -10 -10 -10 -10 -10 -11 -11 -11 -12 -12 -12 -12 -12
-11 -11 -10 -10 -10 -10 -11 -10 -10 -10 -10 -10 -10 -10 -10 -11 -10 -10 -10 -10 -10 -10 -10 -9 -9 -9 -9 -10 -10 -10 -10 -10 -10 -10 -10 -10 -10 -11 -11 -11 -11 -12 -12 -12 -12 -13 -12
-11 -11 -11 -10 -10 -10 -11 -11 -11 -11 -10 -11 -11 -11 -11 -11 -10 -10 -10 -10 -10 -10 -10 -10 -10 -10 -10 -10 -10 -10 -10 -10 -10 -10 -11 -11 -11 -11 -11 -11 -12 -12 -12 -12 -13 -13 -13
-12 -11 -11 -11 -11 -11 -11 -11 -11 -11 -11 -11 -11 -11 -11 -11 -11 -10 -11 -10 -10 -10 -10 -10 -10 -10 -10 -10 -10 -10 -10 -10 -11 -11 -11 -11 -11 -12 -12 -12 -12 -12 -12 -12 -13 -13 -14
-13 -12 -11 -11 -11 -11 -11 -11 -11 -11 -11 -11 -11 -11 -11 -11 -11 -11 -11 -11 -11 -11 -11 -11 -11 -11 -11 -11 -11 -11 -11 -11 -11 -11 -11 -12 -12 -12 -12 -12 -12 -13 -12 -13 -14 -15 -15
-12 -12 -11 -11 -11 -12 -11 -12 -12 -11 -11 -11 -11 -11 -11 -11 -11 -11 -11 -11 -11 -11 -11 -11 -11 -11 -11 -11 -11 -11 -11 -11 -12 -12 -12 -12 -12 -12 -12 -12 -12 -12 -13 -13 -14 -14 -15
-12 -12 -12 -12 -12 -12 -12 -12 -12 -12 -12 -11 -11 -12 -12 -12 -12 -12 -12 -12 -12 -12 -11 -11 -11 -11 -11 -11 -11 -11 -12 -12 -12 -12 -12 -12 -12 -12 -13 -13 -13 -13 -13 -13 -13 -13 -13
-12 -12 -12 -12 -12 -12 -13 -12 -12 -12 -12 -12 -12 -12 -12 -12 -12 -12 -12 -12 -12 -12 -11 -12 -12 -12 -12 -12 -12 -12 -12 -12 -12 -12 -12 -12 -13 -13 -13 -13 -13 -14 -14 -13 -13 -14 -14
-13 -13 -13 -13 -13 -13 -13 -13 -12 -12 -12 -12 -12 -12 -12 -13 -12 -12 -12 -12 -12 -12 -12 -12 -12 -12 -12 -12 -13 -13 -13 -13 -12 -12 -13 -13 -13 -13 -14 -14 -14 -14 -14 -14 -14 -13 -13
-13 -13 -13 -13 -13 -13 -13 -13 -13 -13 -13 -13 -13 -13 -13 -13 -12 -12 -12 -12 -12 -13 -13 -13 -13 -13 -13 -13 -13 -13 -13 -13 -13 -13 -13 -13 -13 -14 -14 -14 -14 -14 -14 -14 -14 -14 -14
-13 -13 -13 -13 -13 -13 -13 -13 -13 -13 -13 -13 -13 -13 -13 -13 -13 -13 -13 -13 -13 -13 -13 -13 -13 -13 -13 -13 -13 -13 -13 -13 -13 -13 -13 -13 -14 -14 -14 -14 -14 -14 -14 -14 -14 -14 -14
-13 -13 -13 -13 -13 -13 -13 -13 -13 -13 -13 -13 -13 -13 -13 -13 -13 -13 -13 -13 -13 -13 -14 -14 -14 -14 -14 -14 -13 -13 -13 -13 -14 -14 -14 -14 -14 -14 -14 -15 -15 -15 -15 -15 -15 -15 -17
-14 -13 -13 -13 -13 -13 -13 -13 -14 -14 -14 -14 -14 -13 -13 -13 -14 -14 -14 -14 -14 -14 -14 -14 -14 -14 -14 -14 -14 -14 -14 -14 -14 -14 -14 -14 -14 -15 -15 -15 -16 -16 -16 -15 -16 -17 -17
-14 -14 -14 -14 -13 -13 -13 -14 -14 -14 -14 -14 -13 -14 -14 -14 -14 -14 -14 -14 -14 -14 -14 -14 -14 -14 -14 -14 -14 -14 -14 -14 -14 -14 -14 -15 -15 -16 -16 -16 -17 -16 -16 -17 -17 -17 -17
-14 -14 -14 -14 -13 -14 -14 -14 -14 -14 -14 -14 -14 -14 -14 -14 -14 -14 -14 -14 -14 -14 -14 -14 -14 -14 -14 -14 -14 -14 -14 -14 -15 -15 -15 -15 -16 -16 -17 -17 -17 -17 -17 -18 -18 -18 -18
-14 -14 -14 -14 -14 -14 -14 -14 -14 -14 -14 -14 -14 -14 -14 -14 -14 -14 -14 -14 -14 -14 -14 -14 -14 -14 -14 -14 -14 -14 -15 -15 -15 -15 -15 -15 -16 -17 -17 -17 -17 -17 -18 -18 -18 -18 -17
-14 -14 -14 -14 -14 -14 -14 -14 -14 -14 -14 -14 -14 -14 -14 -14 -14 -14 -14 -14 -14 -14 -14 -14 -15 -15 -15 -15 -15 -15 -15 -15 -15 -15 -15 -16 -16 -17 -17 -17 -17 -18 -18 -18 -18 -18 -17
-15 -15 -14 -14 -14 -14 -14 -14 -14 -14 -15 -15 -15 -15 -15 -15 -15 -15 -15 -15 -15 -15 -15 -15 -15 -15 -15 -15 -15 -15 -15 -15 -15 -15 -16 -17 -17 -18 -18 -18 -18 -20 -19 -18 -18 -18 -18
-15 -15 -14 -14 -15 -15 -15 -15 -15 -15 -15 -15 -15 -15 -15 -15 -15 -15 -15 -15 -15 -15 -15 -15 -15 -15 -15 -15 -15 -15 -15 -15 -16 -16 -17 -18 -18 -18 -18 -19 -19 -19 -19 -19 -18 -18 -18
-15 -15 -15 -15 -15 -15 -15 -15 -15 -15 -15 -15 -15 -15 -15 -15 -15 -15 -15 -15 -15 -15 -15 -15 -15 -15 -15 -15 -15 -15 -16 -16 -16 -17 -18 -18 -18 -18 -19 -19 -20 -20 -19 -19 -18 -18 -18
-15 -15 -15 -15 -15 -15 -15 -15 -15 -15 -16 -16 -16 -15 -15 -15 -15 -15 -15 -15 -15 -15 -15 -15 -15 -15 -15 -15 -15 -15 -16 -17 -17 -18 -19 -18 -18 -19 -19 -19 -20 -20 -19 -19 -18 -18 -18
-16 -16 -16 -16 -15 -16 -15 -15 -15 -16 -16 -16 -16 -16 -16 -16 -16 -16 -16 -15 -15 -15 -15 -15 -15 -15 -15 -15 -15 -16 -17 -17 -18 -19 -19 -19 -19 -19 -19 -19 -20 -19 -19 -18 -18 -17 -17
-16 -16 -16 -16 -16 -16 -16 -16 -16 -16 -16 -16 -16 -16 -16 -16 -16 -16 -16 -15 -15 -15 -15 -15 -15 -16 -15 -16 -16 -17 -17 -18 -19 -19 -19 -19 -19 -19 -19 -19 -19 -18 -18 -18 -18 -18 -18
-17 -17 -16 -16 -16 -16 -16 -16 -16 -16 -16 -16 -16 -16 -16 -16 -16 -16 -16 -15 -15 -15 -15 -15 -15 -16 -16 -16 -17 -17 -18 -19 -19 -19 -19 -19 -19 -19 -19 -19 -18 -18 -18 -18 -17 -18 -18
-17 -17 -17 -17 -17 -16 -16 -16 -16 -16 -17 -16 -16 -16 -16 -16 -17 -16 -16 -16 -15 -15 -15 -15 -16 -16 -16 -16 -17 -19 -19 -19 -19 -19 -19 -19 -19 -19 -19 -19 -18 -19 -18 -18 -17 -18 -18
-17 -17 -17 -17 -17 -17 -17 -17 -17 -17 -17 -17 -17 -16 -17 -17 -17 -16 -16 -15 -15 -15 -16 -16 -16 -16 -17 -17 -18 -19 -19 -19 -19 -19 -19 -19 -19 -19 -19 -19 -19 -18 -18 -18 -18 -18 -18
-18 -18 -17 -17 -17 -17 -17 -17 -17 -17 -17 -17 -17 -17 -17 -17 -17 -17 -16 -16 -15 -15 -16 -16 -16 -17 -17 -18 -19 -20 -20 -19 -20 -19 -19 -19 -19 -19 -19 -19 -19 -19 -18 -18 -18 -18 -19
-18 -18 -18 -17 -17 -17 -17 -17 -17 -17 -17 -17 -17 -17 -17 -17 -17 -17 -16 -16 -16 -16 -16 -16 -17 -17 -17 -18 -19 -20 -20 -20 -20 -19 -19 -19 -19 -19 -19 -19 -19 -19 -18 -18 -18 -18 -18
-19 -18 -18 -18 -18 -17 -17 -17 -18 -18 -18 -18 -18 -17 -17 -17 -17 -17 -16 -16 -16 -17 -17 -17 -17 -17 -18 -19 -19 -20 -20 -20 -20 -20 -19 -19 -19 -19 -19 -19 -19 -19 -18 -18 -18 -18 -17
Height
5792 5794 5797 5799 5801 5803 5806 5808 5810 5811 5813 5816 5818 5820 5821 5821 5821 5822 5823 5825 5825 5826 5827 5827 5827 5827 5827 5828 5826 5826 5824 5823 5821 5820 5817 5816 5815 5812 5810 5809 5806 5804 5803 5800 5798 5795 5794
5789 5789 5791 5793 5796 5798 5801 5804 5807 5808 5809 5812 5814 5816 5819 5819 5819 5820 5820 5822 5822 5823 5823 5824 5824 5824 5824 5824 5823 5821 5820 5818 5816 5814 5813 5810 5809 5805 5803 5801 5800 5798 5797 5796 5793 5791 5783
5782 5785 5784 5788 5791 5794 5796 5799 5804 5805 5807 5808 5812 5814 5815 5817 5816 5817 5818 5818 5819 5819 5820 5820 5820 5821 5820 5820 5818 5816 5815 5812 5811 5809 5807 5803 5801 5800 5797 5795 5792 5791 5790 5789 5787 5783 5779
5777 5781 5779 5783 5786 5790 5792 5796 5799 5802 5804 5807 5809 5811 5812 5813 5813 5814 5814 5815 5816 5816 5816 5816 5816 5816 5814 5813 5811 5810 5808 5806 5804 5802 5800 5797 5794 5792 5790 5788 5786 5784 5783 5780 5779 5774 5769
5775 5777 5777 5779 5782 5786 5789 5791 5795 5799 5801 5802 5806 5808 5809 5810 5811 5811 5812 5812 5813 5812 5813 5812 5811 5810 5809 5807 5805 5803 5801 5800 5797 5794 5792 5790 5788 5786 5783 5783 5783 5778 5777 5773 5771 5767 5764
5771 5773 5775 5777 5780 5783 5786 5787 5792 5795 5798 5799 5802 5805 5806 5807 5808 5808 5808 5809 5809 5809 5809 5807 5807 5806 5803 5801 5798 5796 5794 5793 5790 5788 5787 5785 5783 5781 5780 5778 5776 5774 5771 5770 5768 5768 5759
5769 5772 5773 5774 5778 5781 5784 5785 5789 5793 5795 5796 5799 5801 5803 5804 5805 5805 5806 5806 5807 5807 5804 5802 5801 5798 5795 5793 5792 5790 5788 5786 5785 5784 5781 5779 5778 5777 5773 5771 5769 5767 5765 5763 5761 5758 5756
5766 5767 5770 5773 5775 5779 5780 5784 5787 5790 5792 5795 5797 5799 5801 5802 5802 5802 5802 5802 5801 5800 5799 5797 5795 5792 5790 5788 5787 5786 5784 5783 5781 5779 5777 5777 5775 5772 5769 5768 5766 5764 5761 5758 5756 5752 5747
5762 5765 5768 5771 5775 5777 5779 5782 5786 5788 5791 5793 5796 5797 5798 5798 5798 5798 5797 5797 5795 5794 5793 5791 5789 5788 5787 5786 5784 5782 5781 5780 5778 5777 5775 5773 5771 5768 5766 5764 5763 5759 5754 5751 5748 5744 5741
5760 5763 5765 5769 5772 5776 5778 5782 5784 5787 5790 5792 5794 5794 5795 5795 5795 5793 5793 5791 5790 5788 5788 5788 5786 5785 5784 5782 5782 5780 5778 5778 5776 5774 5772 5771 5768 5766 5763 5760 5756 5753 5748 5744 5740 5734 5730
5757 5760 5764 5767 5771 5774 5776 5780 5783 5786 5788 5791 5792 5792 5791 5791 5789 5788 5787 5785 5785 5785 5785 5785 5783 5782 5781 5781 5780 5779 5777 5774 5773 5771 5769 5767 5765 5762 5758 5754 5749 5744 5741 5737 5731 5725 5719
5754 5757 5762 5766 5769 5772 5775 5778 5781 5784 5787 5789 5789 5788 5787 5786 5785 5784 5783 5783 5783 5784 5782 5782 5781 5780 5779 5778 5777 5776 5773 5772 5769 5767 5764 5761 5758 5756 5753 5748 5743 5736 5732 5729 5722 5716 5715
5751 5755 5759 5764 5767 5770 5773 5776 5779 5782 5785 5785 5785 5785 5784 5783 5782 5781 5781 5781 5782 5781 5781 5781 5779 5778 5777 5776 5774 5772 5771 5768 5766 5763 5761 5756 5751 5746 5743 5740 5737 5730 5723 5719 5717 5713 5713
5748 5752 5757 5761 5764 5768 5771 5774 5777 5780 5782 5782 5782 5781 5780 5779 5779 5779 5779 5780 5780 5779 5779 5778 5777 5776 5774 5772 5770 5770 5766 5764 5760 5757 5755 5752 5748 5743 5736 5732 5727 5722 5717 5713 5710 5710 5710
5745 5749 5754 5758 5762 5766 5768 5772 5774 5777 5779 5779 5778 5778 5778 5777 5778 5778 5778 5778 5778 5778 5777 5776 5774 5773 5771 5769 5767 5764 5763 5759 5756 5753 5750 5745 5742 5736 5730 5726 5721 5719 5711 5710 5709 5708 5708
5742 5746 5750 5755 5759 5763 5766 5769 5772 5774 5776 5776 5776 5776 5776 5775 5776 5776 5777 5777 5776 5775 5774 5773 5771 5770 5768 5766 5763 5760 5758 5755 5750 5746 5743 5738 5737 5730 5725 5722 5716 5709 5709 5706 5706 5707 5708
5738 5743 5748 5752 5756 5760 5763 5766 5769 5771 5773 5773 5774 5774 5774 5775 5775 5776 5775 5774 5774 5773 5772 5771 5769 5767 5764 5761 5758 5755 5752 5751 5746 5742 5736 5731 5727 5726 5717 5715 5712 5706 5702 5706 5705 5706 5705
5734 5740 5744 5748 5752 5756 5760 5763 5766 5768 5770 5770 5772 5773 5773 5773 5775 5774 5773 5772 5773 5771 5770 5768 5766 5763 5761 5758 5754 5751 5748 5744 5740 5736 5731 5726 5721 5718 5712 5707 5705 5703 5701 5703 5704 5706 5704
5730 5736 5739 5744 5748 5753 5757 5760 5763 5766 5767 5768 5769 5771 5771 5772 5772 5772 5771 5771 5769 5768 5766 5765 5763 5761 5758 5755 5752 5748 5744 5740 5735 5730 5725 5720 5713 5710 5703 5701 5698 5697 5700 5703 5705 5704 5705
5725 5732 5736 5741 5745 5749 5754 5757 5761 5763 5764 5766 5767 5768 5769 5769 5769 5769 5769 5768 5766 5765 5764 5762 5760 5758 5755 5751 5748 5744 5739 5735 5729 5724 5719 5715 5708 5701 5698 5695 5695 5695 5698 5702 5702 5703 5704
5721 5727 5731 5736 5741 5745 5750 5753 5757 5759 5761 5764 5764 5765 5766 5766 5767 5767 5766 5764 5763 5762 5761 5759 5757 5755 5752 5749 5744 5740 5734 5729 5725 5720 5714 5710 5704 5696 5693 5691 5691 5695 5698 5699 5699 5702 5703
5715 5722 5728 5733 5738 5742 5747 5750 5753 5756 5758 5760 5761 5763 5763 5764 5764 5764 5763 5761 5761 5759 5758 5756 5753 5751 5747 5744 5740 5735 5730 5724 5720 5714 5710 5704 5699 5694 5692 5691 5694 5696 5699 5699 5699 5701 5701
5710 5717 5723 5729 5733 5738 5743 5746 5750 5753 5755 5757 5759 5759 5761 5761 5761 5760 5759 5758 5757 5755 5754 5752 5749 5747 5743 5739 5734 5729 5724 5719 5714 5709 5705 5699 5696 5694 5692 5693 5696 5700 5700 5696 5697 5699 5701
5706 5712 5718 5724 5729 5734 5739 5743 5746 5749 5751 5753 5755 5756 5757 5758 5758 5756 5755 5754 5752 5751 5750 5748 5745 5743 5740 5734 5729 5723 5718 5714 5710 5705 5699 5695 5693 5694 5694 5695 5696 5699 5698 5699 5698 5699 5700
5701 5707 5713 5719 5725 5730 5734 5738 5742 5745 5747 5750 5751 5753 5754 5754 5753 5752 5751 5750 5749 5747 5745 5744 5741 5738 5733 5729 5724 5719 5714 5710 5702 5697 5694 5692 5692 5692 5694 5692 5696 5699 5700 5698 5698 5702 5703
5697 5703 5709 5715 5721 5726 5730 5734 5738 5741 5743 5746 5747 5749 5750 5750 5750 5749 5747 5747 5746 5745 5743 5740 5737 5733 5728 5722 5717 5712 5707 5703 5697 5692 5690 5689 5690 5691 5694 5693 5694 5694 5701 5702 5701 5702 5704
5691 5699 5705 5710 5717 5722 5726 5730 5734 5737 5739 5742 5743 5745 5746 5746 5745 5744 5743 5743 5741 5740 5738 5735 5732 5727 5721 5716 5710 5706 5702 5697 5691 5687 5684 5685 5688 5690 5692 5695 5697 5697 5700 5702 5703 5707 5706
5686 5693 5701 5706 5712 5718 5722 5726 5731 5733 5736 5738 5739 5741 5743 5742 5741 5740 5740 5738 5737 5735 5733 5730 5728 5721 5714 5709 5704 5700 5696 5690 5685 5681 5679 5681 5685 5689 5693 5695 5699 5697 5701 5702 5703 5704 5706
5681 5688 5695 5701 5707 5713 5718 5722 5726 5729 5732 5733 5736 5737 5738 5738 5737 5737 5735 5734 5732 5730 5728 5724 5720 5714 5707 5702 5697 5692 5688 5682 5678 5674 5674 5679 5684 5687 5692 5696 5696 5698 5700 5703 5705 5707 5708
Wind_Speed
27 31 29 29 28 28 28 26 24 21 19 19 16 16 15 14 12 12 12 12 12 13 13 13 14 15 15 14 17 15 20 20 22 22 25 26 27 29 30 30 31 29 28 32 35 36 37
30 29 27 28 28 27 26 26 25 21 19 18 17 17 17 16 15 14 13 14 15 15 14 13 15 16 16 17 19 21 22 22 23 25 27 32 30 32 33 33 32 30 29 29 32 34 42
26 25 25 25 25 24 24 24 24 22 20 18 18 17 17 17 16 16 16 15 15 15 15 15 15 17 19 22 23 25 26 27 27 29 31 35 34 34 34 34 33 30 31 29 30 34 36
22 25 21 21 22 21 21 21 21 21 20 18 17 18 18 17 16 16 15 15 15 15 15 16 17 19 21 25 27 29 30 32 33 35 36 35 34 34 31 32 30 32 32 34 31 28 28
21 20 16 16 17 20 18 19 18 19 19 17 17 18 17 16 16 15 15 13 15 15 15 17 20 23 26 28 32 34 36 38 38 35 32 31 30 28 30 30 28 30 28 28 27 24 31
14 13 11 13 13 14 16 16 16 16 16 16 16 16 15 13 12 12 12 13 14 16 19 22 25 28 31 33 35 33 31 30 28 28 27 25 25 26 26 27 27 27 24 22 25 23 32
12 14 14 11 10 11 14 13 14 15 15 14 14 13 11 10 10 10 13 15 18 21 24 26 30 32 31 30 29 28 25 24 23 22 23 24 26 24 25 23 23 25 27 29 29 30 31
17 16 15 13 13 14 12 13 13 13 11 11 10 9 9 8 10 13 17 20 24 26 28 30 28 26 22 21 20 19 19 19 21 21 21 21 20 22 22 21 23 24 27 30 29 31 36
13 14 14 13 13 13 12 13 12 11 10 9 8 8 9 12 15 18 21 25 28 29 26 23 19 17 17 18 18 17 17 18 19 19 20 21 21 20 20 22 24 27 32 35 38 39 41
16 14 14 14 13 12 11 11 11 10 9 7 8 9 13 17 21 24 26 24 21 18 16 15 14 14 15 16 16 16 16 16 17 18 19 18 19 20 23 27 31 33 36 38 41 43 39
17 14 15 14 14 13 12 12 11 12 10 9 10 13 17 20 26 23 19 15 15 13 13 11 12 13 13 13 13 14 16 18 19 20 22 22 22 24 26 30 34 38 39 40 41 35 30
18 15 17 16 16 13 12 12 13 12 11 10 12 16 21 24 18 12 11 9 9 9 9 9 9 11 12 14 16 16 19 20 20 21 22 24 26 26 28 32 35 40 41 39 28 24 13
19 19 19 18 16 15 13 13 14 13 12 12 15 19 19 13 10 8 7 6 7 7 8 9 11 12 15 17 18 19 18 20 20 21 22 27 30 33 36 36 34 38 40 36 16 9 12
20 20 19 18 17 15 13 13 13 12 12 14 16 16 11 8 6 5 4 7 9 10 10 12 13 13 16 18 19 17 20 21 24 25 25 25 27 31 34 36 38 38 38 24 14 14 9
22 21 19 18 17 15 12 13 13 12 11 13 14 11 8 5 5 4 6 8 10 10 11 13 15 16 16 17 19 21 21 24 24 24 26 28 27 32 36 34 39 36 28 16 13 15 8
22 21 20 19 18 17 15 14 13 11 12 13 10 7 5 4 5 6 6 8 11 13 13 13 13 15 17 20 22 22 21 22 25 28 30 34 32 35 36 34 37 31 20 8 11 7 7
25 23 21 19 18 17 16 14 14 12 11 10 6 4 2 4 6 9 10 10 9 9 10 12 15 18 19 21 23 24 25 24 29 30 34 38 39 32 36 35 29 18 6 8 9 7 7
26 24 21 20 19 17 17 15 14 13 11 8 5 4 4 6 9 8 7 8 9 12 14 16 16 17 18 21 23 24 27 30 32 34 36 38 37 32 34 32 21 5 15 9 5 5 8
28 26 23 22 20 19 18 16 14 13 10 8 7 6 6 7 8 7 8 11 14 14 14 15 16 17 19 23 25 28 30 31 34 37 39 35 37 35 31 21 15 13 13 8 5 6 7
30 27 24 22 20 19 19 16 14 12 10 8 8 6 6 8 7 7 12 16 14 13 12 15 17 19 23 25 27 29 32 34 37 39 38 33 34 36 23 14 13 6 13 5 4 2 8
32 30 28 25 22 20 19 16 14 12 11 9 8 8 8 7 7 10 15 15 12 11 12 14 18 22 24 28 30 33 34 36 38 37 32 33 37 26 18 8 4 7 5 4 3 0 5
33 30 28 25 22 21 19 17 14 12 11 10 9 8 8 8 9 13 15 11 10 10 14 17 21 25 28 30 34 34 35 38 36 31 31 34 29 20 10 1 10 10 4 8 2 1 4
34 32 29 27 25 23 21 16 15 13 12 10 9 9 10 10 11 15 15 10 11 14 17 20 24 27 30 32 35 37 37 37 32 29 32 32 18 9 6 11 11 9 8 9 13 8 7
34 32 31 29 26 24 21 18 16 14 13 11 11 11 10 11 14 16 12 10 12 16 20 22 26 29 31 33 36 37 36 31 29 32 30 21 9 2 9 11 13 14 9 5 4 8 9
35 33 32 29 27 25 22 19 18 15 14 12 12 11 11 12 16 15 13 12 15 18 22 25 28 29 32 35 36 34 32 33 34 33 25 15 7 8 13 16 16 14 16 6 6 4 4
36 34 32 29 27 25 22 20 19 16 14 13 13 13 12 14 16 17 14 14 16 19 22 25 27 30 34 36 37 34 32 33 36 29 18 11 7 10 15 12 20 15 19 11 3 4 11
36 34 32 30 28 25 23 21 19 17 15 15 14 14 14 14 17 16 15 16 19 23 26 26 29 33 36 38 37 32 31 35 36 26 16 10 8 12 15 5 8 14 11 9 7 12 24
36 34 33 31 28 26 24 22 21 18 17 16 15 16 15 14 17 17 16 17 20 24 25 27 30 35 39 39 38 33 35 38 33 23 15 11 10 13 12 10 10 9 11 6 7 29 19
37 36 33 31 28 26 24 22 20 19 18 17 17 17 15 16 18 18 17 19 22 24 26 28 33 38 41 40 39 37 39 40 30 20 13 10 13 16 18 12 8 12 10 10 20 23 18
Wind_Direction
252 251 249 249 249 248 248 250 253 254 253 251 246 249 252 252 250 248 248 252 251 254 259 262 266 270 275 288 286 291 290 293 292 291 288 290 293 297 294 292 285 280 280 283 295 294 290
251 249 250 249 248 247 245 249 253 252 250 247 246 252 259 258 255 252 249 248 251 252 255 262 270 275 281 286 288 293 295 295 293 295 293 296 297 292 294 292 290 288 288 289 288 291 292
242 250 242 243 245 244 244 245 249 251 248 245 251 255 260 258 256 254 252 256 258 262 269 273 276 283 288 294 296 297 295 294 294 294 295 294 291 290 291 291 290 289 289 284 285 287 285
234 243 236 238 236 239 240 240 241 245 245 247 253 258 260 257 253 258 258 261 265 270 270 275 283 290 296 300 299 298 296 295 294 296 295 289 288 292 292 287 288 289 289 291 289 292 297
236 243 235 231 234 236 233 233 236 239 245 245 252 257 258 256 258 255 261 264 267 271 277 286 292 298 301 298 297 296 294 293 294 295 292 291 291 290 288 291 295 296 300 304 314 289 284
225 245 231 223 221 230 226 222 228 232 240 244 253 255 253 251 254 262 267 271 278 281 288 293 297 298 297 295 293 293 294 296 295 293 292 295 293 293 297 294 298 300 305 302 297 276 273
228 226 211 208 212 223 223 216 225 233 239 245 242 242 242 245 254 265 279 287 286 288 293 297 299 299 300 298 295 297 298 298 300 302 303 300 302 310 307 311 311 309 309 307 303 301 302
228 224 218 216 218 224 219 219 223 226 228 232 236 238 237 250 275 288 293 296 296 296 297 299 299 300 304 309 309 307 310 311 311 310 311 312 314 310 309 308 308 306 298 299 303 315 315
224 218 213 213 218 218 217 215 211 209 212 218 225 234 263 289 299 301 302 302 300 297 299 297 299 302 307 307 310 317 321 319 318 319 318 319 316 313 307 301 298 302 304 307 309 309 312
219 221 210 208 204 206 203 208 208 205 205 213 237 268 289 297 301 302 300 300 299 297 303 306 306 309 309 315 320 321 320 322 324 323 322 322 317 314 307 308 308 308 308 311 312 314 309
215 219 221 210 212 205 206 208 207 203 214 239 277 291 297 305 305 301 303 303 302 307 312 310 313 314 315 319 324 326 328 328 327 324 322 320 317 312 310 308 307 308 311 315 318 313 309
218 219 219 214 212 210 209 212 212 221 237 266 292 307 309 306 301 302 308 316 320 324 325 323 323 325 324 324 323 326 324 325 326 325 323 315 315 314 311 311 315 314 319 325 319 305 314
220 214 212 214 211 208 213 217 220 234 249 279 304 308 304 298 311 317 317 328 338 344 345 337 331 331 324 321 323 325 324 321 321 323 322 322 321 317 315 315 322 322 325 328 308 284 317
212 211 211 214 212 215 215 222 231 240 268 296 308 301 297 307 316 322 337 344 345 339 336 330 326 326 323 323 323 327 324 326 326 324 321 319 314 319 320 322 324 326 326 324 309 304 312
210 208 211 213 216 217 215 226 239 254 283 301 306 298 300 310 329 333 336 340 339 339 332 326 323 323 327 327 325 325 328 323 320 318 320 322 326 326 321 324 324 330 320 310 302 310 311
212 213 213 214 219 219 220 229 238 269 289 303 297 293 312 345 358 351 348 332 326 324 325 327 331 333 332 327 325 328 332 330 328 326 325 321 324 323 318 326 329 329 317 298 315 303 302
213 216 217 218 222 224 227 232 244 276 291 297 288 287 335 357 348 337 334 331 337 342 340 332 327 329 332 332 333 333 333 336 329 328 323 320 322 329 320 324 326 311 237 306 316 302 312
212 215 214 218 217 221 232 238 250 274 287 279 262 271 297 330 336 342 349 351 343 333 326 325 328 332 338 338 338 338 333 329 327 325 326 325 324 324 321 322 322 255 279 309 311 319 328
212 212 212 217 218 226 233 238 252 269 272 259 252 261 294 324 335 348 351 339 333 334 340 348 347 346 343 340 338 334 329 328 324 325 327 330 327 324 325 317 308 272 239 262 9 345 326
213 213 215 219 220 228 234 240 250 261 258 248 248 265 303 321 330 336 336 333 332 336 345 350 351 348 344 341 337 333 330 327 327 330 329 331 326 328 324 309 308 288 212 215 327 11 327
211 212 215 219 224 226 230 232 249 249 248 241 250 268 297 313 322 326 329 334 341 355 350 346 346 346 343 339 337 333 330 333 332 331 326 324 332 331 331 333 174 166 151 217 172 283 313
212 214 218 219 224 227 229 236 237 240 243 244 253 271 290 306 316 319 326 337 339 344 345 343 342 342 341 340 337 332 329 331 334 332 329 327 334 335 343 87 137 137 129 332 255 139 26
210 214 217 219 221 224 229 232 233 239 237 244 256 272 289 299 306 316 322 320 325 339 336 337 337 338 338 334 333 330 330 333 334 329 328 329 332 345 104 138 134 124 96 89 111 99 107
212 214 217 220 222 225 229 227 232 237 238 245 258 273 283 289 307 321 324 323 327 331 329 330 331 332 332 331 330 332 336 336 327 327 328 335 322 218 154 148 121 136 108 59 48 35 83
213 215 217 219 223 225 226 224 228 235 240 251 264 275 277 294 312 317 317 317 322 326 327 328 327 329 329 329 329 333 335 336 334 335 330 329 302 190 194 167 77 158 147 159 97 52 47
214 216 218 220 222 225 225 224 230 237 243 253 263 269 276 295 313 315 313 316 321 321 323 323 323 326 329 328 331 337 338 339 336 332 324 299 271 201 209 171 53 134 163 148 133 140 149
213 217 219 220 223 223 225 227 232 239 248 258 265 270 282 299 312 314 315 317 319 319 323 322 325 326 328 328 332 338 340 336 335 327 310 277 230 208 213 146 95 139 168 185 170 148 139
213 215 219 220 221 223 224 228 236 242 250 260 265 270 283 301 312 314 312 316 317 318 320 323 326 326 327 328 332 336 339 333 331 320 292 263 221 201 197 170 94 126 170 165 169 148 137
213 215 218 218 220 222 226 230 238 247 253 259 264 270 285 300 309 311 311 313 313 317 320 323 326 325 326 328 329 332 336 331 328 315 269 239 200 187 192 162 134 165 174 159 148 141 149